[[{"header":{"parameterUnit":"m.s-1","parameterCategory":1,"la1":30.2991,"la2":30.254,"lo1":-89.0895,"lo2":-89.0444,"dy":0.0017,"dx":0.0017,"nx":28,"ny":28,"refTime":"2025-04-05T03:00:00:Z","depth":0,"parameterNumber":2,"parameterNumberName":"U-component_of_WINDS"},"data":[0,0,0,0,0,0,0,0,0,0,0,0,0,0,0,0,0,0,0,0,0,0,0,0,0,0,0,0,0,0,0,0,0,0,0,0,0,0,0,0,0,0,0,0,0,0,0,0,0,0,0,0,0,0,0,0,0,0,-4.7454,-4.7456,0,-4.7581,-4.7582,-4.7584,-4.7615,-4.7615,-4.7614,-4.7613,-4.774,-4.7744,-4.7748,0,0,0,0,0,0,0,0,0,0,0,0,0,-4.7237,-4.7241,-4.7454,-4.7456,-4.7457,-4.7581,-4.7583,-4.7584,-4.7616,-4.7615,-4.7614,-4.7613,-4.7738,-4.7743,-4.7748,0,0,0,0,0,0,0,0,0,0,0,0,0,-4.7344,-4.7242,-4.7454,-4.7488,-4.7492,-4.758,-4.7583,-4.7585,-4.7616,-4.7615,-4.7613,-4.7612,-4.7737,-4.7743,-4.7749,-4.7811,0,0,-4.7768,-4.777,0,0,0,0,0,0,0,0,-4.7338,-4.7352,-4.7481,-4.7486,-4.7491,-4.7581,-4.7553,-4.7661,-4.7616,-4.7569,-4.7613,-4.7612,-4.7688,-4.7698,-4.7724,-4.7817,-4.7823,-4.7768,-4.7772,-4.7775,-4.7776,0,0,0,0,0,0,0,-4.7331,-4.7347,-4.7504,-4.7483,-4.7489,-4.7496,-4.751,-4.7573,-4.7633,-4.7573,-4.7575,-4.759,-4.769,-4.7718,-4.7727,-4.7824,-4.7768,-4.7774,-4.7777,-4.778,-4.7976,-4.7977,0,0,0,0,0,0,-4.7318,-4.7341,-4.75,-4.7508,-4.741,-4.7501,-4.7517,-4.7553,-4.7633,-4.7644,-4.7591,-4.7591,-4.7708,-4.772,-4.7732,-4.781,-4.7775,-4.778,-4.7784,-4.7974,-4.7976,-4.7978,0,0,0,0,0,0,-4.7313,-4.7332,-4.7495,-4.7425,-4.7447,-4.7506,-4.7547,-4.7556,-4.7585,-4.7647,-4.7657,-4.7609,-4.7708,-4.7723,-4.7792,-4.7815,-4.7783,-4.7789,-4.7972,-4.7975,-4.7977,-4.7966,0,0,0,0,0,0,-4.7307,-4.733,-4.7354,-4.7426,-4.745,-4.7553,-4.7549,-4.756,-4.7596,-4.7597,-4.7666,-4.7676,-4.7708,-4.7782,-4.7798,-4.7823,-4.7794,-4.797,-4.7973,-4.7976,-4.7965,-4.7968,-4.7971,0,0,0,0,0,-4.7299,-4.7346,-4.7355,-4.7375,-4.7482,-4.7554,-4.7568,-4.7604,-4.7597,-4.7622,-4.7662,-4.7674,-4.781,-4.7789,-4.7807,-4.7834,-4.7969,-4.7973,-4.7976,-4.7963,-4.7967,-4.7971,0,0,0,0,0,0,-4.7274,-4.7355,-4.7367,-4.7439,-4.7489,-4.7559,-4.7592,-4.7607,-4.766,-4.7659,-4.7701,-4.7717,-4.7782,-4.7815,-4.779,-4.7899,-4.789,-4.7897,-4.7874,-4.7878,-4.7881,-4.7871,-4.7799,0,0,0,0,0,-4.7277,-4.733,-4.7398,-4.7454,-4.7479,-4.7531,-4.7564,-4.7588,-4.7642,-4.7663,-4.7708,-4.7759,-4.7814,-4.7848,-4.7902,-4.7971,-4.7986,-4.7999,-4.8001,-4.8003,-4.8008,-4.8047,-4.8053,-4.7989,-4.7989,-4.7989,0,0,-4.7283,-4.7334,-4.7364,-4.745,-4.7492,-4.7545,-4.7549,-4.7604,-4.7643,-4.7671,-4.7738,-4.7773,-4.7833,-4.7902,-4.7935,-4.7932,-4.803,-4.8008,-4.8009,-4.8013,-4.8051,-4.8057,-4.8063,-4.7991,-4.799,-4.799,0,0,-4.7321,-4.7365,-4.7417,-4.746,-4.7525,-4.7559,-4.7572,-4.764,-4.7665,-4.7734,-4.7756,-4.7803,-4.7896,-4.7938,-4.7971,-4.8028,-4.8041,-4.8045,-4.8058,-4.8096,-4.8101,-4.8106,-4.8125,-4.8131,-4.805,-4.805,-4.805,0,-4.732,-4.7401,-4.7441,-4.7496,-4.7533,-4.7563,-4.7615,-4.7655,-4.7733,-4.7757,-4.7754,-4.7872,-4.7914,-4.7993,-4.8007,-4.8034,-4.8049,-4.8035,-4.8097,-4.8102,-4.8107,-4.8126,-4.8133,-4.805,-4.805,-4.805,-4.805,0,-4.7396,-4.7452,-4.7486,-4.7562,-4.7603,-4.7656,-4.7705,-4.7742,-4.7763,-4.7798,-4.7868,-4.7921,-4.7985,-4.8007,-4.8027,-4.8089,-4.8085,-4.8089,-4.808,-4.8113,-4.8131,-4.8138,-4.8049,-4.8049,-4.8049,-4.805,0,0,-4.7418,-4.7518,-4.753,-4.7565,-4.764,-4.7683,-4.7739,-4.7803,-4.7834,-4.7888,-4.7934,-4.8013,-4.8018,-4.8056,-4.8082,-4.8115,-4.8156,-4.8115,-4.8117,-4.8119,-4.8227,-4.8222,-4.8229,-4.8166,-4.8168,-4.8169,-4.8221,0,-4.7464,-4.7563,-4.7603,-4.7684,-4.7736,-4.7766,-4.7814,-4.7865,-4.79,-4.7949,-4.7987,-4.8042,-4.8045,-4.8068,-4.8103,-4.8143,-4.8178,-4.8141,-4.8208,-4.821,-4.819,-4.8239,-4.8234,-4.828,-4.8229,-4.823,-4.8231,0,-4.7529,-4.7585,-4.7671,-4.7741,-4.7764,-4.7806,-4.7869,-4.7916,-4.7975,-4.7998,-4.8042,-4.8067,-4.8125,-4.8115,-4.8196,-4.817,-4.8201,-4.8226,-4.8228,-4.8234,-4.822,-4.8244,-4.8296,-4.8302,-4.8243,-4.8242,-4.8241,0,-4.7535,-4.7632,-4.7696,-4.7726,-4.7809,-4.7838,-4.7873,-4.7931,-4.7968,-4.8023,-4.8047,-4.8109,-4.8141,-4.8188,-4.8229,-4.8218,-4.8306,-4.8299,-4.8326,-4.8324,-4.834,-4.8338,-4.8396,-4.8364,-4.8364,-4.8363,-4.8363,0,-4.758,-4.7631,-4.77,-4.7739,-4.7798,-4.7843,-4.7899,-4.7937,-4.7989,-4.8035,-4.8066,-4.8109,-4.8161,-4.8211,-4.8244,-4.8305,-4.832,-4.834,-4.8348,-4.8336,-4.8333,-4.8355,-4.8352,-4.8365,-4.8365,-4.8365,-4.8364,0,-4.7595,-4.7643,-4.7715,-4.7789,-4.7809,-4.7848,-4.7911,-4.795,-4.7988,-4.8047,-4.8063,-4.8122,-4.8182,-4.8228,-4.8307,-4.8328,-4.8394,-4.8403,-4.8374,-4.8377,-4.84,-4.8397,-4.8472,-4.8483,-4.8445,-4.8445,-4.8446,0,-4.762,-4.766,-4.7739,-4.7773,-4.7809,-4.7863,-4.7902,-4.7949,-4.7987,-4.8058,-4.8088,-4.8152,-4.8204,-4.8299,-4.8348,-4.8409,-4.8418,-4.8441,-4.8427,-4.8415,-4.8417,-4.8413,-4.8417,-4.8441,-4.8441,-4.8442,-4.8442,0,-4.7658,-4.768,-4.7735,-4.7798,-4.7843,-4.7895,-4.7947,-4.7973,-4.803,-4.8072,-4.8135,-4.8176,-4.8257,-4.8318,-4.8384,-4.8421,-4.844,-4.8446,-4.8455,-4.8442,-4.8423,-4.8433,-4.8376,-4.8443,-4.8443,-4.8443,-4.8443,-4.8443,-4.7678,-4.7715,-4.7776,-4.7836,-4.7881,-4.793,-4.797,-4.8014,-4.8067,-4.8137,-4.8162,-4.8227,-4.8286,-4.8376,-4.8414,-4.8465,-4.8465,-4.8478,-4.8481,-4.8483,-4.8482,-4.8417,-4.8477,-4.8477,-4.8477,-4.8477,-4.8477,0,-4.7716,-4.7758,-4.7813,-4.7885,-4.7933,-4.795,-4.8009,-4.8047,-4.8103,-4.8157,-4.8209,-4.8282,-4.8343,-4.8398,-4.8461,-4.8491,-4.8502,-4.8506,-4.8503,-4.8511,-4.8478,-4.8463,-4.8496,-4.8496,-4.8496,-4.8496,-4.8496,-4.8496,-4.7741,-4.7805,-4.7835,-4.7922,-4.7963,-4.8028,-4.806,-4.8105,-4.8148,-4.8228,-4.8279,-4.8315,-4.837,-4.8438,-4.8494,-4.8509,-4.853,-4.8532,-4.8548,-4.8516,-4.8513,-4.8511,-4.8497,-4.8536,-4.8537,-4.8577,-4.8577,-4.8577]},{"header":{"parameterUnit":"m.s-1","parameterCategory":1,"la1":30.2991,"la2":30.254,"lo1":-89.0895,"lo2":-89.0444,"dy":0.0017,"dx":0.0017,"nx":28,"ny":28,"refTime":"2025-04-05T03:00:00:Z","depth":0,"parameterNumber":3,"parameterNumberName":"V-component_of_WINDS"},"data":[0,0,0,0,0,0,0,0,0,0,0,0,0,0,0,0,0,0,0,0,0,0,0,0,0,0,0,0,0,0,0,0,0,0,0,0,0,0,0,0,0,0,0,0,0,0,0,0,0,0,0,0,0,0,0,0,0,0,4.1342,4.1343,0,4.1426,4.1427,4.1428,4.147,4.147,4.147,4.1471,4.1553,4.1556,4.1558,0,0,0,0,0,0,0,0,0,0,0,0,0,4.1219,4.1221,4.1342,4.1343,4.1344,4.1426,4.1427,4.1428,4.147,4.147,4.147,4.1471,4.1553,4.1555,4.1558,0,0,0,0,0,0,0,0,0,0,0,0,0,4.1284,4.1221,4.1342,4.1375,4.1379,4.1426,4.1427,4.1429,4.147,4.147,4.1471,4.1471,4.1552,4.1555,4.1558,4.1577,0,0,4.1568,4.157,0,0,0,0,0,0,0,0,4.128,4.1289,4.1369,4.1373,4.1378,4.1438,4.1414,4.1478,4.147,4.1436,4.1471,4.1471,4.1515,4.1521,4.1537,4.1581,4.1585,4.1569,4.1571,4.1572,4.1573,0,0,0,0,0,0,0,4.1276,4.1285,4.1375,4.1371,4.1376,4.1386,4.1395,4.1426,4.1474,4.1439,4.1442,4.1451,4.1517,4.1533,4.1539,4.1586,4.1568,4.1571,4.1573,4.1575,4.1655,4.1655,0,0,0,0,0,0,4.1266,4.1281,4.1373,4.1378,4.1328,4.1388,4.1399,4.1418,4.1474,4.1482,4.1451,4.1453,4.1528,4.1535,4.1542,4.1571,4.1572,4.1575,4.1577,4.1654,4.1655,4.1655,0,0,0,0,0,0,4.1263,4.1274,4.1369,4.1331,4.1344,4.139,4.1412,4.142,4.1437,4.1483,4.1492,4.1459,4.1528,4.1537,4.1569,4.1574,4.1576,4.1579,4.1654,4.1655,4.1655,4.1626,0,0,0,0,0,0,4.126,4.1273,4.128,4.1331,4.1346,4.1395,4.1412,4.1422,4.1442,4.1446,4.1493,4.1501,4.1529,4.1564,4.1573,4.1579,4.1582,4.1654,4.1654,4.1655,4.1627,4.1626,4.1624,0,0,0,0,0,4.1255,4.1267,4.128,4.1291,4.1356,4.1395,4.1404,4.1437,4.1443,4.1451,4.1482,4.1499,4.1572,4.1567,4.1577,4.1584,4.1654,4.1654,4.1655,4.1628,4.1626,4.1624,0,0,0,0,0,0,4.1214,4.1274,4.1289,4.1319,4.1352,4.1403,4.1414,4.1433,4.1465,4.1466,4.1505,4.1515,4.1544,4.1567,4.1561,4.1607,4.1615,4.1617,4.1591,4.159,4.1588,4.1583,4.1585,0,0,0,0,0,4.1209,4.1237,4.1287,4.1308,4.1324,4.1366,4.1385,4.1407,4.1443,4.1457,4.149,4.1523,4.1554,4.1573,4.1603,4.1631,4.1643,4.1641,4.1639,4.1638,4.164,4.1659,4.1659,4.1656,4.1656,4.1656,0,0,4.1198,4.1234,4.1249,4.1301,4.133,4.1358,4.1378,4.1405,4.1427,4.1461,4.1494,4.1519,4.1559,4.159,4.1605,4.161,4.1643,4.1638,4.1637,4.1639,4.1659,4.1659,4.166,4.1656,4.1656,4.1656,0,0,4.1192,4.1222,4.1244,4.1273,4.1317,4.1345,4.135,4.1399,4.1418,4.1452,4.1479,4.1505,4.1556,4.1585,4.1606,4.1615,4.1634,4.1624,4.1617,4.1635,4.1635,4.1636,4.1641,4.1642,4.1625,4.1625,4.1625,0,4.1172,4.1216,4.1252,4.128,4.1303,4.1337,4.1361,4.1387,4.1438,4.1453,4.1458,4.1526,4.1555,4.1594,4.1597,4.1612,4.1621,4.1618,4.1632,4.1633,4.1634,4.164,4.1641,4.1624,4.1624,4.1624,4.1624,0,4.1191,4.1221,4.1234,4.1285,4.1309,4.1334,4.1375,4.1395,4.1417,4.1445,4.1481,4.1517,4.1558,4.1568,4.1588,4.1611,4.1614,4.1625,4.1634,4.1632,4.1638,4.1641,4.1622,4.1622,4.1623,4.1623,0,0,4.116,4.1234,4.1238,4.1263,4.1315,4.1339,4.1367,4.1408,4.1426,4.146,4.1485,4.153,4.1542,4.1566,4.159,4.1606,4.1614,4.1616,4.1617,4.1616,4.1644,4.1636,4.1638,4.1626,4.1627,4.1627,4.1642,0,4.1163,4.1215,4.1251,4.1289,4.1319,4.1353,4.1378,4.1413,4.144,4.147,4.15,4.1532,4.1544,4.1559,4.1577,4.1609,4.162,4.1608,4.1651,4.1652,4.1641,4.1641,4.1632,4.1644,4.1644,4.1644,4.1645,0,4.1173,4.1209,4.1251,4.1304,4.1318,4.1339,4.1382,4.1409,4.145,4.1469,4.1498,4.1523,4.1555,4.1561,4.1606,4.1597,4.1617,4.1636,4.1637,4.1643,4.1649,4.1648,4.1648,4.165,4.1648,4.1648,4.1648,0,4.1149,4.1208,4.1242,4.1262,4.1323,4.1338,4.1364,4.1406,4.1429,4.1466,4.1482,4.1521,4.1543,4.1573,4.1609,4.1609,4.1651,4.1659,4.1669,4.1668,4.1676,4.1676,4.1681,4.1687,4.1687,4.1687,4.1687,0,4.1149,4.1174,4.1233,4.1253,4.1283,4.1324,4.1352,4.1381,4.1418,4.1446,4.1477,4.1502,4.1547,4.1578,4.1606,4.1641,4.165,4.1667,4.1674,4.1665,4.1663,4.1679,4.1679,4.1687,4.1687,4.1687,4.1687,0,4.1127,4.1167,4.1207,4.1263,4.1278,4.1297,4.1346,4.1368,4.1398,4.1433,4.1443,4.1491,4.153,4.1568,4.1619,4.1638,4.1673,4.1682,4.1659,4.1664,4.1672,4.1671,4.1689,4.1694,4.1695,4.1694,4.1694,0,4.1124,4.1145,4.1205,4.1226,4.1253,4.1286,4.1312,4.1353,4.1378,4.1429,4.1445,4.1486,4.1522,4.1582,4.1621,4.1661,4.1672,4.1676,4.1678,4.1669,4.1675,4.1674,4.1677,4.1674,4.1674,4.1674,4.1674,0,4.1117,4.1137,4.1173,4.1216,4.1246,4.1282,4.1319,4.1334,4.1383,4.141,4.1451,4.1479,4.1533,4.1574,4.162,4.1647,4.1669,4.1673,4.1678,4.1669,4.1656,4.1665,4.1658,4.1672,4.1672,4.1673,4.1673,4.1673,4.1106,4.1128,4.1174,4.1213,4.1246,4.1281,4.1306,4.1341,4.1376,4.1424,4.1447,4.1488,4.1532,4.1596,4.1623,4.1657,4.1662,4.1668,4.167,4.1672,4.1671,4.165,4.1665,4.1665,4.1665,4.1665,4.1665,0,4.1102,4.1135,4.1171,4.1223,4.1255,4.1275,4.1318,4.1343,4.138,4.1419,4.1455,4.1503,4.1544,4.1588,4.1632,4.165,4.1662,4.1661,4.166,4.1667,4.1662,4.1654,4.1651,4.1651,4.1651,4.1651,4.1651,4.1651,4.1104,4.1142,4.1168,4.1223,4.1256,4.1298,4.1321,4.1354,4.1386,4.144,4.1475,4.1504,4.1546,4.1594,4.1633,4.1645,4.166,4.1656,4.1671,4.1666,4.1667,4.1668,4.1661,4.1659,4.1659,4.1674,4.1674,4.1674]}]]